Simultaneous Nadir Overpasses (SNOs) Predictions

Prediction of SNOs between METOP-A and NOAA-19 Satellite Orbit:

Table of predicted SNOs for the next 14.0 days since TLE Epoch: 2/17/2014
Index Date (METOP-A) Time (METOP-A) Lat,Lon (METOP-A) SZA (METOP-A ) Date (NOAA-19) Time (NOAA-19) Lat,Lon (NOAA-19) SZA (NOAA-19 ) Distance(km) Time Diff (sec)
1 02/26/2014 00:51:19 -74.42, -17.63 96.71 02/26/2014 00:50:10 -74.41, -19.95 96.60 69.22 69
2 02/26/2014 01:42:08 73.96, 148.55 82.87 02/26/2014 01:41:03 73.95, 148.48 82.88 2.11 65
3 02/26/2014 02:32:51 -73.90, -44.25 97.19 02/26/2014 02:32:04 -73.93, -44.22 97.16 3.07 47
4 02/26/2014 03:23:31 73.89, 123.04 82.78 02/26/2014 03:23:06 73.90, 123.08 82.80 2.56 25
5 02/26/2014 04:14:13 -73.88, -69.65 97.24 02/26/2014 04:14:07 -73.88, -69.62 97.24 0.80 6
6 02/26/2014 05:04:53 73.86, 97.64 82.74 02/26/2014 05:05:09 73.86, 97.68 82.73 1.36 16
7 02/26/2014 05:55:35 -73.86, -95.04 97.28 02/26/2014 05:56:10 -73.84, -95.02 97.31 2.73 35
8 02/26/2014 06:46:15 73.84, 72.25 82.69 02/26/2014 06:47:12 73.81, 72.28 82.65 3.44 57
9 02/26/2014 07:36:59 -73.74,-120.66 97.42 02/26/2014 07:38:13 -73.79,-120.42 97.39 9.39 74




NCC Satellite Simultaneous Nadir Overpasses (SNOs) Prediction Service
